EW1895 Weather Reports


time (UTC)temp
C
wind
direction
speed
KPH
gust
KPH
rain 1hr
cm
rain 24hr
cm
rain mn
cm
humidity
%
barometer
mb
20260904071514 24 305 0.0 0.0 0.00 0.00 0.00 84 1013.5
20260904070012 25 305 0.0 0.0 0.00 0.00 0.00 84 1013.4
20260904064515 25 305 0.0 0.0 0.00 0.00 0.00 85 1013.5
20260904061506 25 305 0.0 0.0 0.00 0.00 0.00 83 1013.5
20260904060006 26 305 0.0 1.6 0.00 0.00 0.00 81 1014.1
20260904054506 26 327 0.0 8.0 0.00 0.00 0.00 85 1014.8
20260904051502 26 5 0.0 0.0 0.00 0.00 0.00 89 1014.0
20260904050002 26 5 0.0 0.0 0.00 0.00 0.00 89 1014.1
20260904044502 26 5 0.0 0.0 0.00 0.00 0.00 88 1014.2
20260904041501 26 5 0.0 0.0 0.00 0.00 0.00 89 1014.4
20260904040110 26 5 0.0 0.0 0.00 0.00 0.00 90 1014.2
20260904034610 26 5 0.0 0.0 0.00 0.00 0.00 90 1014.2
20260904033200 26 5 0.0 0.0 0.00 0.00 0.00 91 1014.3
20260904031600 26 5 0.0 0.0 0.00 0.00 0.00 91 1014.3
20260904030059 26 5 0.0 0.0 0.00 0.00 0.00 91 1014.4
20260904024600 26 5 0.0 0.0 0.00 0.00 0.00 91 1014.3
20260904023159 26 5 0.0 0.0 0.00 0.00 0.00 91 1014.4
20260904021609 26 5 0.0 0.0 0.00 0.00 0.00 91 1014.2
20260904020059 26 5 0.0 0.0 0.00 0.00 0.00 91 1014.1
20260904014637 26 5 0.0 0.0 0.00 0.00 0.00 90 1014.3
20260904013159 27 5 0.0 0.0 0.00 0.00 0.00 89 1014.6
20260904011614 27 5 0.0 0.0 0.00 0.00 0.00 89 1014.6
20260904004559 27 5 0.0 0.0 0.00 0.00 0.00 89 1015.0
20260904003156 27 5 0.0 0.0 0.00 0.00 0.00 88 1015.0
20260904001554 28 5 0.0 0.0 0.00 0.00 0.00 87 1014.7
20260904000054 28 5 0.0 0.0 0.00 0.00 0.00 86 1014.5
20260903234554 28 5 0.0 0.0 0.00 0.00 0.00 84 1014.2
20260903233155 29 5 0.0 0.0 0.00 0.00 0.00 82 1014.0
20260903231553 30 5 0.0 0.0 0.00 0.00 0.00 81 1014.1
20260903230055 30 5 0.0 0.0 0.00 0.00 0.00 78 1014.0
20260903224552 31 5 0.0 0.0 0.00 0.00 0.00 74 1013.9
20260903223155 32 5 0.0 0.0 0.00 0.00 0.00 70 1013.7
20260903221551 32 5 0.0 0.0 0.00 0.00 0.00 68 1013.7
20260903220116 33 5 0.0 0.0 0.00 0.00 0.00 66 1013.9
20260903214548 33 5 0.0 0.0 0.00 0.00 0.00 66 1014.0
20260903213150 33 5 0.0 0.0 0.00 0.00 0.00 63 1014.0
20260903211552 34 5 0.0 0.0 0.00 0.00 0.00 62 1014.2
20260903210056 35 5 0.0 0.0 0.00 0.00 0.00 60 1014.2
20260903204546 35 5 0.0 0.0 0.00 0.00 0.00 60 1014.3
20260903203145 35 5 0.0 0.0 0.00 0.00 0.00 56 1014.6
20260903201544 35 5 0.0 0.0 0.00 0.00 0.00 57 1014.7
20260903200044 36 5 0.0 0.0 0.00 0.00 0.00 58 1014.7
20260903194543 36 5 0.0 0.0 0.00 0.00 0.00 55 1014.9
20260903193142 36 5 0.0 0.0 0.00 0.00 0.00 53 1015.3
20260903191539 36 5 0.0 0.0 0.00 0.00 0.00 54 1015.4
20260903190037 36 5 0.0 8.0 0.00 0.00 0.00 52 1015.5
20260903184533 36 344 0.0 0.0 0.00 0.00 0.00 56 1015.9
20260903183130 35 344 0.0 0.0 0.00 0.00 0.00 57 1016.0
20260903181529 35 344 0.0 1.6 0.00 0.00 0.00 59 1016.1
20260903180032 35 344 0.0 0.0 0.00 0.00 0.00 58 1016.4
20260903174526 35 344 0.0 0.0 0.00 0.00 0.00 59 1016.7
20260903173123 34 344 0.0 0.0 0.00 0.00 0.00 60 1016.6
20260903171527 33 344 0.0 0.0 0.00 0.00 0.00 62 1016.7
20260903170032 33 335 0.0 3.2 0.00 0.00 0.00 64 1017.0
20260903164520 33 341 0.0 0.0 0.00 0.00 0.00 63 1017.1
20260903163111 33 26 0.0 1.6 0.00 0.00 0.00 64 1017.4
20260903161507 32 26 0.0 0.0 0.00 0.00 0.00 68 1017.4
20260903160005 31 26 0.0 1.6 0.00 0.00 0.00 68 1017.4
20260903154503 31 328 0.0 0.0 0.00 0.00 0.00 70 1017.5
20260903153101 30 324 0.0 6.4 0.00 0.00 0.00 73 1017.6
20260903151557 30 286 0.0 1.6 0.00 0.00 0.00 75 1017.6
20260903150109 30 119 0.0 3.2 0.00 0.00 0.00 75 1017.5
20260903144601 30 329 0.0 8.0 0.00 0.00 0.00 75 1017.4
20260903143050 29 152 0.0 8.0 0.00 0.00 0.00 76 1017.3
20260903141547 29 87 0.0 4.8 0.00 0.00 0.00 78 1017.3
20260903140043 28 173 0.0 3.2 0.00 0.00 0.00 80 1017.1
20260903134547 27 173 0.0 3.2 0.00 0.00 0.00 86 1017.2
20260903133038 25 170 0.0 0.0 0.00 0.00 0.00 94 1016.8
20260903131532 24 170 0.0 0.0 0.00 0.00 0.00 96 1017.1
20260903130028 23 170 0.0 0.0 0.00 0.00 0.00 96 1017.2
20260903124530 23 170 0.0 0.0 0.00 0.00 0.00 96 1017.4
20260903123033 23 170 0.0 0.0 0.00 0.00 0.00 96 1017.4
20260903121527 22 170 0.0 0.0 0.00 0.00 0.00 96 1017.4
20260903120025 22 170 0.0 0.0 0.00 0.00 0.00 96 1017.4
20260903114521 22 170 0.0 0.0 0.00 0.00 0.00 96 1017.2
20260903113019 22 170 0.0 0.0 0.00 0.00 0.00 95 1017.0
20260903111518 21 170 0.0 0.0 0.00 0.00 0.00 95 1016.9
20260903110017 22 170 0.0 0.0 0.00 0.00 0.00 95 1016.8
20260903104514 22 170 0.0 0.0 0.00 0.00 0.00 95 1016.7
20260903103014 22 170 0.0 0.0 0.00 0.00 0.00 95 1016.5
20260903101513 22 170 0.0 0.0 0.00 0.00 0.00 95 1016.7
20260903100012 22 170 0.0 0.0 0.00 0.00 0.00 95 1016.5
20260903094511 22 170 0.0 0.0 0.00 0.00 0.00 95 1016.7
20260903093010 22 170 0.0 0.0 0.00 0.00 0.00 95 1016.7
20260903091513 22 170 0.0 0.0 0.00 0.00 0.00 95 1016.4
20260903090016 22 170 0.0 0.0 0.00 0.00 0.00 95 1016.4
20260903084522 22 170 0.0 0.0 0.00 0.00 0.00 95 1016.2
20260903083006 22 170 0.0 0.0 0.00 0.00 0.00 95 1016.1
20260903081506 22 170 0.0 0.0 0.00 0.00 0.00 95 1015.9
20260903080005 22 170 0.0 0.0 0.00 0.00 0.00 94 1016.1
20260903074502 22 170 0.0 0.0 0.00 0.00 0.00 95 1016.3